GW3329 Weather Reports


time (UTC)temp
C
wind
direction
speed
KPH
gust
KPH
rain 1hr
cm
rain 24hr
cm
rain mn
cm
humidity
%
barometer
mb
20260506182351 21 189 4.8 6.4 0.00 0.00 0.00 55 1021.7
20260506181848 21 78 0.0 4.8 0.00 0.00 0.00 55 1021.9
20260506181346 21 275 3.2 12.9 0.00 0.00 0.00 56 1021.7
20260506180843 20 227 1.6 4.8 0.00 0.00 0.00 57 1021.9
20260506180339 20 80 1.6 3.2 0.00 0.00 0.00 57 1022.0
20260506175836 20 129 1.6 6.4 0.00 0.00 0.00 58 1022.0
20260506175333 20 133 0.0 4.8 0.00 0.00 0.00 57 1021.9
20260506174830 20 265 4.8 6.4 0.00 0.00 0.00 57 1021.9
20260506174327 20 199 0.0 4.8 0.00 0.00 0.00 57 1021.7
20260506173824 20 155 1.6 4.8 0.00 0.00 0.00 57 1022.0
20260506173321 19 135 1.6 9.7 0.00 0.00 0.00 59 1021.8
20260506172818 20 249 1.6 12.9 0.00 0.00 0.00 58 1021.9
20260506172315 20 65 1.6 4.8 0.00 0.00 0.00 59 1022.1
20260506171812 20 234 6.4 6.4 0.00 0.00 0.00 57 1022.0
20260506171309 18 133 0.0 4.8 0.00 0.00 0.00 60 1022.1
20260506170807 19 23 1.6 3.2 0.00 0.00 0.00 60 1021.8
20260506170303 18 93 0.0 4.8 0.00 0.00 0.00 62 1021.9
20260506165802 19 148 3.2 4.8 0.00 0.00 0.00 58 1022.0
20260506165259 19 164 1.6 3.2 0.00 0.00 0.00 61 1021.9
20260506164755 19 221 3.2 4.8 0.00 0.00 0.00 59 1021.9
20260506164252 19 194 1.6 11.3 0.00 0.00 0.00 60 1021.9
20260506163749 18 37 1.6 4.8 0.00 0.00 0.00 59 1022.0
20260506163244 18 163 0.0 4.8 0.00 0.00 0.00 58 1021.8
20260506162740 18 85 1.6 4.8 0.00 0.00 0.00 61 1021.9
20260506162238 18 210 0.0 0.0 0.00 0.00 0.00 62 1022.0
20260506161730 18 76 1.6 3.2 0.00 0.00 0.00 62 1021.9
20260506161227 18 284 1.6 4.8 0.00 0.00 0.00 63 1022.0
20260506160724 17 90 0.0 1.6 0.00 0.00 0.00 65 1021.8
20260506160221 17 100 0.0 4.8 0.00 0.00 0.00 64 1021.8
20260506155719 17 211 1.6 3.2 0.00 0.00 0.00 64 1021.9
20260506155216 17 157 0.0 3.2 0.00 0.00 0.00 68 1022.1
20260506153318 17 145 1.6 3.2 0.00 0.00 0.00 67 1021.7
20260506152815 16 148 1.6 3.2 0.00 0.00 0.00 69 1021.9
20260506152312 16 123 0.0 1.6 0.00 0.00 0.00 70 1021.8
20260506151810 15 124 1.6 3.2 0.00 0.00 0.00 74 1021.7
20260506151307 15 92 3.2 4.8 0.00 0.00 0.00 74 1022.0
20260506150804 15 124 1.6 3.2 0.00 0.00 0.00 74 1021.9
20260506150304 15 96 3.2 6.4 0.00 0.00 0.00 77 1021.9
20260506145757 15 88 3.2 3.2 0.00 0.00 0.00 75 1021.7
20260506145254 14 94 4.8 6.4 0.00 0.00 0.00 77 1021.8
20260506144752 14 112 0.0 3.2 0.00 0.00 0.00 78 1021.8
20260506144248 13 123 1.6 3.2 0.00 0.00 0.00 80 1021.8
20260506143746 13 115 0.0 1.6 0.00 0.00 0.00 81 1021.9
20260506143243 13 117 0.0 0.0 0.00 0.00 0.00 82 1021.9
20260506142742 13 92 3.2 4.8 0.00 0.00 0.00 82 1021.7
20260506142239 12 124 0.0 0.0 0.00 0.00 0.00 83 1021.8
20260506141738 12 96 0.0 0.0 0.00 0.00 0.00 85 1021.7
20260506141235 11 99 0.0 0.0 0.00 0.00 0.00 87 1021.6
20260506140732 11 94 1.6 3.2 0.00 0.00 0.00 87 1021.8
20260506140229 11 124 0.0 0.0 0.00 0.00 0.00 88 1021.7
20260506135726 11 125 0.0 0.0 0.00 0.00 0.00 88 1021.8
20260506135222 10 118 0.0 0.0 0.00 0.00 0.00 88 1021.6
20260506134719 10 118 0.0 0.0 0.00 0.00 0.00 90 1021.4
20260506134215 10 117 0.0 0.0 0.00 0.00 0.00 92 1021.8
20260506133713 10 126 0.0 0.0 0.00 0.00 0.00 93 1021.6
20260506133209 9 130 0.0 0.0 0.00 0.00 0.00 94 1021.5
20260506132707 8 130 0.0 0.0 0.00 0.00 0.00 94 1021.6
20260506132203 8 130 0.0 0.0 0.00 0.00 0.00 94 1021.4
20260506131701 8 130 0.0 0.0 0.00 0.00 0.00 95 1021.6
20260506131157 8 130 0.0 0.0 0.00 0.00 0.00 95 1021.6
20260506130654 8 130 0.0 0.0 0.00 0.00 0.00 94 1021.4
20260506130151 8 130 0.0 0.0 0.00 0.00 0.00 94 1021.5
20260506125649 8 130 0.0 0.0 0.00 0.00 0.00 94 1021.4
20260506125147 8 130 0.0 0.0 0.00 0.00 0.00 94 1021.5
20260506124645 8 130 0.0 0.0 0.00 0.00 0.00 94 1021.2
20260506124142 8 130 0.0 0.0 0.00 0.00 0.00 94 1021.0
20260506123639 8 128 0.0 0.0 0.00 0.00 0.00 93 1021.4
20260506123138 9 128 0.0 0.0 0.00 0.00 0.00 93 1021.1
20260506122635 9 146 0.0 0.0 0.00 0.00 0.00 93 1020.9
20260506122132 9 154 0.0 0.0 0.00 0.00 0.00 93 1021.0
20260506121629 9 138 0.0 0.0 0.00 0.00 0.00 93 1020.9
20260506121126 9 138 0.0 0.0 0.00 0.00 0.00 93 1020.9
20260506120624 9 141 0.0 0.0 0.00 0.00 0.00 93 1021.1
20260506120121 9 137 0.0 0.0 0.00 0.00 0.00 93 1021.0
20260506115620 9 132 0.0 0.0 0.00 0.00 0.00 93 1021.0
20260506115117 9 148 0.0 0.0 0.00 0.00 0.00 93 1020.9
20260506114614 9 134 0.0 1.6 0.00 0.00 0.00 94 1020.9
20260506114112 9 121 0.0 0.0 0.00 0.00 0.00 94 1020.8
20260506113610 9 105 0.0 0.0 0.00 0.00 0.00 94 1021.0
20260506113107 9 105 0.0 0.0 0.00 0.00 0.00 94 1020.8
20260506112604 9 104 0.0 0.0 0.00 0.00 0.00 94 1021.0
20260506112102 9 104 0.0 0.0 0.00 0.00 0.00 94 1021.1
20260506111559 9 103 0.0 0.0 0.00 0.00 0.00 93 1020.9
20260506111056 9 103 0.0 0.0 0.00 0.00 0.00 93 1021.0
20260506110554 9 102 0.0 0.0 0.00 0.00 0.00 93 1020.7
20260506110051 9 102 0.0 0.0 0.00 0.00 0.00 93 1020.7
20260506105547 9 101 0.0 1.6 0.00 0.00 0.00 93 1020.9
20260506105044 9 123 0.0 0.0 0.00 0.00 0.00 93 1020.8
20260506104542 9 133 0.0 0.0 0.00 0.00 0.00 94 1020.5
20260506104040 9 125 0.0 0.0 0.00 0.00 0.00 94 1020.8
20260506103537 9 136 0.0 0.0 0.00 0.00 0.00 94 1020.8
20260506103033 9 145 0.0 0.0 0.00 0.00 0.00 94 1020.8
20260506102532 9 145 0.0 0.0 0.00 0.00 0.00 95 1021.0
20260506102029 9 145 0.0 0.0 0.00 0.00 0.00 95 1020.9
20260506101525 9 145 0.0 0.0 0.00 0.00 0.00 95 1020.8
20260506101023 9 145 0.0 0.0 0.00 0.00 0.00 95 1020.8
20260506100521 8 145 0.0 0.0 0.00 0.00 0.00 95 1020.9
20260506100019 8 145 0.0 0.0 0.00 0.00 0.00 95 1020.9
20260506095517 8 145 0.0 0.0 0.00 0.00 0.00 95 1021.1
20260506095013 8 146 0.0 0.0 0.00 0.00 0.00 95 1021.0
20260506094511 8 146 0.0 0.0 0.00 0.00 0.00 95 1021.2
20260506094009 8 146 0.0 0.0 0.00 0.00 0.00 95 1021.2
20260506093507 8 146 0.0 0.0 0.00 0.00 0.00 95 1021.1
20260506093004 8 146 0.0 0.0 0.00 0.00 0.00 95 1021.0
20260506092502 9 146 0.0 0.0 0.00 0.00 0.00 95 1021.1
20260506091958 9 146 0.0 0.0 0.00 0.00 0.00 95 1021.1
20260506091457 9 146 0.0 0.0 0.00 0.00 0.00 95 1021.2
20260506090953 9 146 0.0 0.0 0.00 0.00 0.00 95 1021.2
20260506090451 9 145 0.0 0.0 0.00 0.00 0.00 95 1021.3
20260506085947 9 145 0.0 0.0 0.00 0.00 0.00 95 1021.2
20260506085444 9 145 0.0 0.0 0.00 0.00 0.00 95 1021.3
20260506084941 9 145 0.0 0.0 0.00 0.00 0.00 95 1021.3
20260506084437 9 145 0.0 0.0 0.00 0.00 0.00 95 1021.3
20260506083933 9 145 0.0 0.0 0.00 0.00 0.00 95 1021.4
20260506083431 9 145 0.0 0.0 0.00 0.00 0.00 95 1021.4
20260506082928 9 145 0.0 0.0 0.00 0.00 0.00 95 1021.5
20260506082425 9 145 0.0 0.0 0.00 0.00 0.00 94 1021.6
20260506081921 9 145 0.0 0.0 0.00 0.00 0.00 94 1021.5
20260506081420 10 145 0.0 0.0 0.00 0.00 0.00 94 1021.4
20260506080916 9 145 0.0 0.0 0.00 0.00 0.00 94 1021.4
20260506080413 9 145 0.0 0.0 0.00 0.00 0.00 94 1021.6
20260506073357 10 145 0.0 0.0 0.00 0.00 0.00 93 1021.6
20260506072854 10 145 0.0 0.0 0.00 0.00 0.00 93 1021.5
20260506072351 10 145 0.0 0.0 0.00 0.00 0.00 94 1021.4
20260506071849 10 145 0.0 0.0 0.00 0.00 0.00 94 1021.5
20260506071347 10 145 0.0 0.0 0.00 0.00 0.00 93 1021.3
20260506070843 10 145 0.0 0.0 0.00 0.00 0.00 93 1021.3
20260506070341 10 145 0.0 0.0 0.00 0.00 0.00 93 1021.2
20260506062318 10 145 0.0 0.0 0.00 0.00 0.00 92 1020.8
20260506061814 10 145 0.0 0.0 0.00 0.00 0.00 91 1020.8
20260506061310 11 145 0.0 0.0 0.00 0.00 0.00 91 1020.8
20260506060809 11 145 0.0 0.0 0.00 0.00 0.00 90 1020.8
20260506060307 11 145 0.0 0.0 0.00 0.00 0.00 90 1020.8
20260506051238 11 163 0.0 0.0 0.00 0.00 0.00 89 1020.4
20260506050736 11 163 0.0 0.0 0.00 0.00 0.00 88 1020.7
20260506050233 11 164 0.0 0.0 0.00 0.00 0.00 88 1020.5
20260506044723 12 140 0.0 0.0 0.00 0.00 0.00 87 1020.0
20260506044221 12 178 0.0 1.6 0.00 0.00 0.00 86 1020.0
20260506043718 12 219 0.0 3.2 0.00 0.00 0.00 87 1020.0
20260506043216 12 211 0.0 3.2 0.00 0.00 0.00 87 1020.0
20260506042714 12 186 3.2 3.2 0.00 0.00 0.00 87 1019.8
20260506042213 12 245 0.0 1.6 0.00 0.00 0.00 87 1019.8
20260506041711 12 247 1.6 3.2 0.00 0.00 0.00 87 1019.8
20260506041207 12 277 1.6 3.2 0.00 0.00 0.00 87 1019.8
20260506040705 12 239 1.6 3.2 0.00 0.00 0.00 86 1019.8
20260506040202 12 218 3.2 3.2 0.00 0.00 0.00 86 1019.4
20260506035658 12 220 0.0 3.2 0.00 0.00 0.00 86 1019.4
20260506035155 12 220 1.6 3.2 0.00 0.00 0.00 85 1019.3
20260506034651 12 217 0.0 3.2 0.00 0.00 0.00 85 1019.1
20260506034149 12 217 0.0 1.6 0.00 0.00 0.00 84 1019.1
20260506033646 12 213 1.6 3.2 0.00 0.00 0.00 83 1019.3
20260506033143 12 211 1.6 1.6 0.00 0.00 0.00 82 1019.0
20260506032640 13 260 0.0 3.2 0.00 0.00 0.00 82 1019.3
20260506032137 13 205 1.6 3.2 0.00 0.00 0.00 81 1019.1
20260506031634 13 181 0.0 1.6 0.00 0.00 0.00 80 1019.0
20260506031131 13 178 0.0 1.6 0.00 0.00 0.00 80 1018.6
20260506030630 13 178 0.0 0.0 0.00 0.00 0.00 79 1018.6
20260506030126 13 184 0.0 1.6 0.00 0.00 0.00 78 1018.8
20260506025623 13 179 0.0 1.6 0.00 0.00 0.00 78 1018.5
20260506025118 13 170 0.0 0.0 0.00 0.00 0.00 77 1018.7
20260506024616 14 167 1.6 4.8 0.00 0.00 0.00 76 1018.6
20260506024112 14 181 0.0 0.0 0.00 0.00 0.00 75 1018.4
20260506023608 14 338 0.0 3.2 0.00 0.00 0.00 75 1018.4
20260506023106 14 246 3.2 3.2 0.00 0.00 0.00 75 1018.2
20260506022603 14 120 1.6 3.2 0.00 0.00 0.00 75 1018.1
20260506022101 14 285 1.6 3.2 0.00 0.00 0.00 75 1018.4
20260506021558 14 233 3.2 3.2 0.00 0.00 0.00 75 1018.2
20260506021055 14 197 1.6 3.2 0.00 0.00 0.00 75 1018.2
20260506020553 14 183 0.0 4.8 0.00 0.00 0.00 75 1018.1
20260506020050 14 174 0.0 6.4 0.00 0.00 0.00 75 1018.1
20260506015548 14 158 3.2 6.4 0.00 0.00 0.00 75 1018.0
20260506015044 15 155 3.2 4.8 0.00 0.00 0.00 74 1018.2
20260506014542 15 162 0.0 0.0 0.00 0.00 0.00 74 1018.0
20260506014037 15 264 1.6 4.8 0.00 0.00 0.00 75 1017.9
20260506013536 15 194 8.0 11.3 0.00 0.00 0.00 74 1018.0
20260506013033 15 309 1.6 3.2 0.00 0.00 0.00 73 1017.9
20260506012529 15 172 3.2 9.7 0.00 0.00 0.00 72 1018.0
20260506012026 15 172 8.0 11.3 0.00 0.00 0.00 71 1018.1
20260506011524 16 109 1.6 9.7 0.00 0.00 0.00 71 1018.1
20260506011019 15 201 1.6 9.7 0.00 0.00 0.00 72 1018.0
20260506010514 15 256 6.4 12.9 0.00 0.00 0.00 72 1018.0
20260506010009 15 184 1.6 11.3 0.00 0.00 0.00 71 1018.1
20260506005507 15 231 3.2 17.7 0.00 0.00 0.00 72 1017.8
20260506005002 15 166 1.6 12.9 0.00 0.00 0.00 71 1017.8
20260506004500 15 262 0.0 4.8 0.00 0.00 0.00 71 1018.0
20260506003956 15 166 4.8 9.7 0.00 0.00 0.00 70 1017.9
20260506003453 15 152 1.6 9.7 0.00 0.00 0.00 71 1017.9
20260506002949 15 154 1.6 14.5 0.00 0.00 0.00 73 1017.9
20260506002445 15 103 6.4 12.9 0.00 0.00 0.00 73 1017.7
20260506001940 16 168 3.2 11.3 0.00 0.00 0.00 73 1017.9
20260506001438 16 205 3.2 11.3 0.00 0.00 0.00 74 1017.6
20260506000935 16 176 9.7 22.5 0.00 0.00 0.00 73 1017.9
20260506000432 16 179 6.4 14.5 0.00 0.00 0.00 70 1017.8
20260505235929 16 156 6.4 20.9 0.00 0.00 0.00 69 1017.7
20260505235428 16 208 4.8 11.3 0.00 0.00 0.00 68 1017.6
20260505234924 16 202 6.4 24.1 0.00 0.00 0.00 66 1017.6
20260505234421 17 198 9.7 14.5 0.00 0.00 0.00 62 1017.6
20260505233918 17 218 6.4 9.7 0.00 0.00 0.00 61 1017.5
20260505233416 17 253 8.0 20.9 0.00 0.00 0.00 62 1017.9
20260505232913 17 219 3.2 12.9 0.00 0.00 0.00 62 1017.7
20260505232411 17 188 9.7 16.1 0.00 0.00 0.00 63 1017.7
20260505231907 17 190 8.0 16.1 0.00 0.00 0.00 64 1017.6
20260505231405 17 179 8.0 9.7 0.00 0.00 0.00 62 1017.6
20260505230903 17 173 8.0 11.3 0.00 0.00 0.00 61 1017.6
20260505230400 17 170 4.8 12.9 0.00 0.00 0.00 60 1017.5
20260505225856 17 228 4.8 6.4 0.00 0.00 0.00 62 1017.6
20260505225354 17 271 6.4 12.9 0.00 0.00 0.00 62 1017.7
20260505224849 17 41 3.2 9.7 0.00 0.00 0.00 61 1017.6
20260505224347 17 245 9.7 16.1 0.00 0.00 0.00 60 1018.0
20260505223844 18 314 6.4 14.5 0.00 0.00 0.00 56 1017.8
20260505223341 18 183 14.5 17.7 0.00 0.00 0.00 56 1017.7
20260505222836 20 331 3.2 6.4 0.00 0.00 0.00 54 1017.8
20260505222333 18 195 3.2 9.7 0.00 0.00 0.00 58 1017.9
20260505221830 18 274 11.3 12.9 0.00 0.00 0.00 58 1018.0
20260505221327 18 146 6.4 12.9 0.00 0.00 0.00 59 1017.9
20260505220824 18 169 6.4 14.5 0.00 0.00 0.00 60 1017.7
20260505220321 18 263 12.9 17.7 0.00 0.00 0.00 58 1017.9
20260505215819 18 272 3.2 11.3 0.00 0.00 0.00 61 1018.0
20260505215316 18 188 6.4 22.5 0.00 0.00 0.00 57 1018.0
20260505214814 18 188 4.8 12.9 0.00 0.00 0.00 56 1018.1
20260505214311 18 209 8.0 16.1 0.00 0.00 0.00 58 1018.2
20260505213808 18 248 6.4 22.5 0.00 0.00 0.00 57 1018.2
20260505213306 18 219 9.7 11.3 0.00 0.00 0.00 56 1018.3
20260505212801 20 253 11.3 17.7 0.00 0.00 0.00 54 1018.0
20260505212259 18 274 1.6 14.5 0.00 0.00 0.00 55 1018.3
20260505211755 19 224 9.7 25.7 0.00 0.00 0.00 54 1018.0
20260505211253 19 183 8.0 12.9 0.00 0.00 0.00 53 1018.0
20260505210749 19 211 8.0 17.7 0.00 0.00 0.00 52 1018.0
20260505210246 20 310 6.4 12.9 0.00 0.00 0.00 53 1018.2
20260505205743 19 322 4.8 12.9 0.00 0.00 0.00 52 1018.2
20260505205242 18 233 11.3 22.5 0.00 0.00 0.00 53 1018.1
20260505204738 18 213 6.4 22.5 0.00 0.00 0.00 54 1018.2
20260505204236 18 241 6.4 17.7 0.00 0.00 0.00 55 1018.0
20260505203733 18 163 1.6 9.7 0.00 0.00 0.00 54 1018.1
20260505203230 18 163 6.4 14.5 0.00 0.00 0.00 53 1018.2
20260505202725 19 278 6.4 11.3 0.00 0.00 0.00 52 1018.1
20260505202222 19 180 4.8 11.3 0.00 0.00 0.00 52 1018.1
20260505201718 20 193 4.8 6.4 0.00 0.00 0.00 50 1018.0
20260505201216 20 182 4.8 6.4 0.00 0.00 0.00 50 1017.8
20260505200714 20 136 4.8 11.3 0.00 0.00 0.00 50 1018.2
20260505200211 19 162 3.2 12.9 0.00 0.00 0.00 54 1018.0
20260505195706 18 262 6.4 12.9 0.00 0.00 0.00 55 1018.1
20260505195204 18 263 3.2 9.7 0.00 0.00 0.00 53 1018.2
20260505194701 20 153 3.2 9.7 0.00 0.00 0.00 51 1018.3
20260505194156 19 185 3.2 16.1 0.00 0.00 0.00 53 1018.2
20260505193648 18 189 12.9 16.1 0.00 0.00 0.00 54 1018.1
20260505193145 20 213 4.8 22.5 0.00 0.00 0.00 54 1018.2
20260505192644 20 124 8.0 20.9 0.00 0.00 0.00 51 1018.5
20260505192141 20 161 1.6 9.7 0.00 0.00 0.00 54 1018.2
20260505191639 19 280 8.0 16.1 0.00 0.00 0.00 55 1018.1
20260505191137 20 208 3.2 12.9 0.00 0.00 0.00 54 1018.3
20260505190633 20 197 6.4 9.7 0.00 0.00 0.00 52 1018.2
20260505190132 19 222 4.8 9.7 0.00 0.00 0.00 55 1018.1
20260505185630 20 151 1.6 4.8 0.00 0.00 0.00 55 1018.3
20260505185126 20 183 3.2 4.8 0.00 0.00 0.00 53 1018.0
20260505184623 20 206 1.6 4.8 0.00 0.00 0.00 54 1018.3
20260505184120 19 11 1.6 6.4 0.00 0.00 0.00 56 1018.0
20260505183616 19 221 1.6 9.7 0.00 0.00 0.00 57 1018.3
20260505183114 18 248 6.4 9.7 0.00 0.00 0.00 57 1018.2
20260505182610 18 279 8.0 12.9 0.00 0.00 0.00 56 1018.3